RH
14 13 17 20 27 35 44 46 100 100 100 79 80 60 55 68 77 70 65 70 54 51 51 72 58 47 38 31 35 38 39 43 41 35 30 33 30 33 33 39 43 36 30 32 28
11 12 14 18 21 33 52 52 79 100 100 100 93 78 66 62 63 68 66 70 62 53 44 47 42 43 38 38 34 37 44 37 32 40 39 27 25 27 31 29 29 32 37 36 33
10 12 13 15 18 32 47 67 63 72 100 100 100 78 87 79 56 47 57 53 60 68 62 54 48 46 42 39 39 31 35 40 33 43 39 37 32 26 28 33 29 21 27 32 32
4 11 11 14 18 26 39 62 100 95 75 100 100 100 76 84 86 75 46 42 41 46 53 56 55 43 39 35 35 39 35 34 36 41 37 38 31 30 27 28 30 26 21 24 25
2 4 8 16 22 26 31 48 95 100 100 99 100 100 100 96 92 91 69 63 40 28 22 31 44 49 44 38 36 33 37 34 39 32 34 37 35 32 30 25 26 27 28 23 25
2 2 2 10 22 26 34 53 84 100 100 82 88 100 89 100 99 100 100 82 59 47 34 22 16 19 26 32 36 32 30 31 29 25 25 22 29 27 25 20 22 21 25 28 18
2 2 2 4 23 27 39 62 70 100 96 66 78 88 68 76 74 86 100 99 100 91 63 49 28 17 11 11 13 17 18 22 19 14 14 15 16 16 16 11 11 15 14 20 23
2 2 3 4 23 32 45 56 86 87 79 86 65 63 85 87 82 71 68 49 78 99 79 42 27 18 19 15 13 12 12 12 10 8 9 9 9 9 7 7 9 10 10 7 11
2 2 2 3 16 38 51 60 75 85 58 63 83 89 83 84 80 79 73 62 57 58 55 50 44 38 27 19 14 14 13 12 10 7 6 5 5 5 4 6 6 5 5 5 6
2 2 2 3 5 26 42 74 74 73 71 75 72 61 78 82 70 60 65 74 65 65 63 62 53 40 29 28 21 20 14 10 9 6 5 4 4 4 3 3 3 3 3 3 4
4 4 3 3 3 12 29 52 80 77 71 64 68 71 74 79 64 58 52 49 47 42 43 42 40 42 43 23 16 11 7 5 4 4 4 3 3 2 2 2 2 2 3 3 3
5 6 5 4 3 4 23 48 68 65 68 72 64 60 50 46 40 31 40 43 43 43 43 38 36 24 14 10 9 6 5 4 4 4 4 3 3 2 2 2 2 2 2 2 2
7 6 6 7 5 6 8 21 28 36 53 52 51 41 34 27 27 46 58 54 48 46 40 32 17 12 9 8 8 6 5 5 4 4 4 4 2 2 2 2 1 1 1 1 2
8 9 8 7 10 10 11 14 17 22 29 36 27 29 37 50 54 59 61 54 36 20 17 12 8 9 9 9 7 6 5 4 4 4 3 3 2 2 2 2 2 1 1 1 1
7 14 11 10 8 10 13 16 19 23 30 42 42 39 46 54 51 49 28 16 11 12 11 11 11 11 12 10 8 8 7 5 5 4 3 3 2 2 2 2 1 1 1 1 1
9 6 9 15 10 9 10 12 16 21 26 21 23 31 45 40 24 14 15 15 16 16 20 18 18 14 10 9 8 6 5 4 3 3 3 2 2 2 2 2 2 1 1 1 1
11 10 8 7 10 14 14 11 10 10 10 14 16 16 15 17 22 29 35 24 18 14 10 9 9 8 8 7 6 5 5 4 4 4 3 2 2 2 1 1 1 1 1 1 1
20 12 11 10 8 8 8 10 13 20 24 22 26 27 34 25 19 15 11 14 17 16 12 13 11 8 8 9 7 6 5 4 5 4 3 3 2 2 2 1 1 1 1 1 1
32 26 19 13 13 12 12 11 11 12 13 16 19 18 15 17 24 26 16 11 12 12 12 12 16 16 17 14 14 14 14 10 14 8 6 4 3 2 2 2 1 1 1 1 1
33 37 28 23 20 15 13 12 13 13 13 13 16 18 16 12 11 13 14 16 17 19 20 23 30 38 32 25 30 33 26 24 20 15 15 9 8 6 3 3 3 2 2 2 2
29 28 41 43 35 28 28 25 22 21 19 14 12 12 10 10 13 15 17 21 24 27 29 30 29 27 27 24 23 33 27 31 24 21 34 25 19 18 9 6 8 7 4 3 3
31 31 29 34 52 47 41 39 38 39 40 37 33 30 33 33 34 35 31 36 40 43 48 48 47 38 29 30 27 29 26 28 25 29 40 45 38 31 27 25 26 15 12 10 6
31 34 30 28 30 44 52 51 48 42 42 42 43 42 36 37 38 39 40 41 41 41 43 47 47 43 36 34 34 39 33 34 34 33 35 44 48 60 51 49 50 43 37 30 35
31 28 41 36 32 29 32 42 49 52 52 48 46 44 44 43 42 44 46 48 49 50 46 43 42 40 40 38 35 34 38 37 30 26 35 44 57 52 51 64 57 64 78 78 62
62 47 29 35 38 36 28 29 31 39 47 55 57 51 50 51 50 49 51 54 56 58 59 60 59 53 48 50 50 48 45 38 38 38 42 43 48 51 53 64 67 82 80 83 85
73 61 50 42 29 36 38 43 30 28 28 38 44 51 55 54 52 50 51 52 54 54 54 55 57 62 65 67 67 61 62 61 56 50 44 36 39 43 45 51 60 80 97 100 100
81 76 54 50 39 32 37 36 37 38 27 27 28 34 43 45 49 52 54 53 51 50 49 50 53 56 58 59 62 65 73 72 65 65 62 54 49 47 43 46 52 55 61 80 94
Wind_Speed
82 82 78 81 84 90 97 99 90 85 81 79 76 74 71 76 85 88 92 93 93 93 94 90 90 87 84 82 80 79 79 80 77 75 74 74 71 69 70 68 67 65 61 59 57
80 81 78 80 76 77 92 96 98 88 85 81 79 76 72 70 72 76 86 88 87 90 94 96 96 94 91 89 87 86 84 82 81 80 79 79 78 75 71 71 72 71 71 66 64
73 76 81 79 74 76 75 95 95 94 87 82 82 79 73 69 70 70 73 83 87 89 92 95 95 95 96 96 94 90 88 86 86 86 84 84 83 81 77 75 77 75 75 73 71
63 69 75 73 74 70 73 81 98 95 91 86 86 81 76 72 69 68 70 72 75 83 88 92 95 94 96 99 98 94 92 91 93 93 90 87 87 87 85 83 82 81 79 77 75
46 57 67 66 69 69 70 72 90 100 97 93 92 83 78 77 70 68 68 69 73 76 84 93 98 96 94 96 97 98 101 101 100 97 95 94 95 93 90 91 91 89 84 84 79
27 38 48 55 61 67 69 74 73 99 101 99 86 84 83 81 75 70 71 68 70 72 75 79 84 91 97 99 97 99 100 103 105 105 104 101 99 96 101 100 98 96 93 87 87
9 22 25 42 56 61 67 73 70 83 97 94 91 84 82 79 77 75 73 70 68 71 74 77 81 82 82 86 91 98 101 104 104 105 103 102 102 105 108 108 102 99 101 96 92
8 11 17 31 51 56 63 66 74 75 78 89 86 81 82 80 78 80 82 78 76 77 80 80 80 79 76 78 77 79 85 92 97 100 101 104 101 110 110 106 108 107 104 102 100
11 12 21 32 46 55 62 66 69 71 66 72 81 82 81 80 82 81 81 83 81 80 79 80 83 85 79 78 76 77 75 81 87 91 96 100 96 103 108 109 109 109 105 100 98
26 13 12 25 37 52 57 66 62 64 65 66 67 65 76 78 78 79 83 82 82 82 82 82 83 85 83 83 79 78 80 81 83 84 85 90 88 95 99 102 103 103 100 98 93
41 30 14 16 29 46 56 58 63 66 64 64 62 59 66 66 66 71 75 79 81 83 79 75 72 71 73 74 73 72 69 69 71 74 78 78 76 73 82 87 90 93 96 96 95
47 41 28 13 15 29 45 55 63 61 56 59 55 56 59 59 54 52 55 54 53 54 55 53 55 59 60 59 61 61 58 60 61 60 61 64 61 61 65 77 79 79 82 85 85
59 48 35 31 20 14 21 36 40 47 56 59 55 52 50 47 43 34 37 40 42 44 48 51 54 51 47 45 44 45 46 47 48 47 49 53 59 51 58 67 69 70 71 75 77
66 52 45 35 28 22 19 20 28 33 45 46 33 32 30 26 27 29 35 40 43 43 43 42 36 32 30 31 30 31 31 33 35 35 39 39 49 44 49 56 61 62 62 65 66
68 59 50 41 32 23 21 21 18 17 27 31 36 32 25 26 29 32 35 35 30 24 24 18 19 19 18 18 21 21 24 23 24 27 30 32 38 38 39 45 48 50 52 54 55
76 67 54 48 42 34 25 17 18 19 25 24 21 22 24 25 24 21 18 13 11 11 11 12 16 15 14 13 13 15 15 17 17 18 20 22 24 27 30 35 37 39 43 47 49
88 75 63 54 45 40 38 34 25 19 14 15 14 13 11 7 7 5 5 8 9 9 6 4 4 6 7 6 6 4 5 3 6 8 11 13 14 19 23 27 29 29 33 37 40
89 87 77 61 53 49 45 39 34 30 25 22 18 14 9 6 6 8 8 8 6 10 10 12 16 13 14 13 17 16 11 9 11 11 6 3 7 11 16 18 22 23 25 29 34
83 86 86 79 63 51 48 45 42 39 34 30 25 23 23 22 22 25 26 25 25 24 22 21 23 22 21 21 19 20 19 20 19 17 15 11 8 7 4 6 9 12 16 20 25
84 79 78 78 78 71 64 57 51 47 45 42 39 37 36 36 35 33 31 31 31 30 30 31 28 25 22 21 21 21 20 23 20 20 20 20 16 14 12 10 5 2 3 3 9
97 90 77 75 76 76 76 73 68 62 55 50 49 47 45 44 42 37 37 39 39 39 40 39 35 30 26 26 24 21 21 23 21 23 28 28 20 23 17 18 19 11 9 2 3
106 100 88 73 69 68 67 66 64 62 60 58 55 54 55 54 52 51 48 51 51 52 52 49 47 41 36 31 27 25 23 25 24 25 27 26 26 23 26 25 28 22 15 11 2
103 104 97 86 75 58 57 57 56 55 55 55 55 55 52 52 52 49 48 49 48 47 49 46 45 45 45 45 45 38 29 25 25 25 27 27 28 26 25 27 31 26 24 25 15
95 97 97 93 86 76 60 49 47 47 47 47 46 46 47 46 45 44 44 45 46 45 42 41 42 43 43 44 44 44 46 41 30 26 28 29 31 29 29 27 30 29 20 19 17
83 87 93 91 91 81 72 67 54 43 40 38 38 38 38 38 37 37 38 39 38 38 38 38 39 38 39 39 40 41 40 39 40 40 38 35 31 30 30 32 31 29 24 23 12
75 79 82 83 90 83 75 71 66 61 46 37 34 31 30 30 30 30 30 30 29 29 30 30 30 30 31 33 35 36 35 35 35 36 34 32 33 35 34 32 30 30 26 24 21
65 68 76 76 81 80 83 77 68 66 59 51 41 31 29 28 25 24 24 23 24 24 24 24 25 26 27 27 27 27 31 32 32 32 33 33 33 32 31 30 29 28 26 23 19
Wind_Direction
239 239 238 238 236 235 233 228 226 229 233 234 233 234 234 237 237 238 239 242 244 243 243 245 244 245 246 246 246 242 240 245 243 243 244 246 245 243 243 247 248 247 248 249 251
233 235 234 236 234 231 232 229 225 225 228 232 234 235 235 236 239 239 240 240 242 243 243 244 244 244 246 247 246 245 245 243 242 245 245 247 248 247 246 246 247 245 245 245 247
236 233 230 232 230 226 227 227 229 223 224 229 233 235 235 236 238 239 240 241 242 242 243 243 243 244 246 246 246 246 246 244 243 246 247 246 248 248 248 249 249 246 244 242 243
236 232 233 224 228 225 221 225 225 228 225 227 230 233 234 236 239 241 242 242 243 243 244 244 246 247 247 247 247 248 246 248 248 248 248 248 250 247 249 250 249 246 244 243 243
238 230 232 226 222 223 223 222 224 225 229 224 225 228 233 235 237 241 243 245 245 246 248 247 247 247 248 248 247 247 247 248 249 247 248 248 250 250 249 247 247 248 245 245 244
234 230 234 226 217 220 221 222 223 223 226 228 227 229 230 232 235 241 243 247 251 252 252 252 250 250 249 248 248 250 252 251 250 249 251 250 248 248 249 248 247 246 246 245 246
220 223 226 218 214 215 217 219 224 225 227 229 228 230 234 235 236 235 239 244 250 255 256 255 255 254 255 254 254 254 254 253 254 253 252 250 249 249 249 250 249 249 247 246 246
125 178 207 204 208 210 211 214 223 225 226 230 231 231 231 236 241 243 243 242 243 249 254 256 258 259 263 261 257 258 256 256 257 255 253 251 249 251 251 250 250 250 251 249 247
85 158 179 186 200 207 210 212 218 224 225 228 231 235 237 238 238 243 246 246 251 252 255 260 260 261 263 265 265 264 260 257 256 253 252 251 250 251 251 252 252 252 251 251 250
64 70 158 180 192 202 208 210 214 221 225 227 230 236 239 242 241 244 244 247 252 254 259 262 263 263 268 269 265 263 260 257 255 256 256 254 250 251 252 251 252 253 254 253 253
59 65 90 168 184 196 205 207 212 218 222 227 230 238 239 240 245 248 247 249 252 255 259 264 267 267 266 263 263 262 262 259 257 257 258 260 260 258 257 258 256 255 256 257 258
53 62 72 100 170 195 202 206 208 217 222 229 235 242 244 246 262 264 261 264 265 264 265 264 263 260 260 261 261 260 261 261 262 263 262 263 262 254 254 254 254 253 252 253 254
55 55 63 76 99 155 193 213 216 222 228 235 241 242 248 263 259 264 268 262 261 259 256 257 259 263 265 266 265 265 265 265 266 263 263 261 255 251 249 254 254 253 253 251 251
55 59 58 68 88 104 129 177 201 212 223 227 226 249 258 263 261 260 260 252 252 256 260 262 266 270 267 266 266 266 266 266 265 265 263 262 264 257 254 253 255 255 253 252 251
50 54 60 61 74 102 123 138 154 178 213 234 248 243 242 246 246 253 254 259 260 256 254 263 265 265 267 262 261 259 258 261 262 260 259 256 259 259 255 255 255 254 252 251 248
45 51 57 66 68 75 86 108 148 157 186 197 201 215 229 242 244 247 255 257 264 260 267 266 260 265 265 263 265 269 277 278 282 277 273 268 270 265 258 255 254 252 252 250 248
47 45 51 61 67 74 79 87 99 116 124 150 174 186 186 198 209 217 253 269 247 225 239 245 247 224 194 200 203 204 221 206 226 241 268 270 274 273 265 261 258 254 250 247 243
48 50 49 52 64 69 72 76 81 84 88 95 100 102 97 103 126 131 128 112 121 158 178 154 152 133 117 113 101 91 88 78 60 51 19 356 286 272 267 268 265 258 249 244 241
43 49 55 55 52 61 73 78 79 82 81 83 89 98 103 101 108 114 118 110 100 101 103 96 88 84 82 82 85 81 69 66 59 54 51 53 59 25 333 271 253 246 241 232 230
40 41 48 53 61 64 66 68 75 78 79 80 85 87 87 84 84 87 89 86 80 77 77 77 72 69 68 73 73 71 71 71 63 64 61 63 51 62 63 61 53 329 236 229 227
37 37 37 44 47 51 55 60 62 66 69 73 73 73 73 73 74 75 79 78 76 77 74 70 67 67 67 66 74 75 76 72 63 71 62 58 55 58 63 63 56 58 55 78 176
33 37 38 39 40 46 52 54 56 58 61 64 67 70 71 74 75 75 75 79 77 76 73 73 68 65 65 65 66 76 79 75 76 78 74 65 62 66 69 66 58 77 78 66 103
31 33 33 37 40 40 44 49 51 52 54 55 58 62 67 69 69 68 69 71 72 71 68 67 66 64 64 64 63 63 63 66 75 81 82 77 78 71 62 65 57 74 65 53 75
30 29 30 33 32 35 39 39 42 49 49 50 52 53 54 58 62 63 63 63 62 62 64 61 57 57 57 59 60 60 59 57 55 64 77 80 74 76 76 72 67 74 71 56 46
27 29 27 29 30 30 33 35 34 34 36 44 47 45 46 50 53 55 55 54 55 55 55 53 52 52 50 48 48 49 51 53 53 56 59 63 71 74 74 74 76 71 73 65 61
25 26 27 28 29 31 30 31 32 31 31 30 28 32 37 38 39 39 44 48 48 48 48 49 49 48 43 39 37 34 38 41 44 45 50 57 58 62 66 71 75 82 83 75 74
15 24 25 24 24 25 27 28 26 26 27 28 28 24 23 22 23 24 25 29 31 30 30 32 33 32 32 32 35 32 26 21 25 30 31 30 33 39 44 49 55 60 66 70 72